TimePDT,TemperatureF,Dew PointF,Humidity,Sea Level PressureIn,VisibilityMPH,Wind Direction,Wind SpeedMPH,Gust SpeedMPH,PrecipitationIn,Events,Conditions,WindDirDegrees,DateUTC
12:53 AM,45.0,41.0,86,29.78,10.0,Calm,Calm,-,0.00,,Overcast,0,2012-10-22 07:53:00
1:53 AM,44.1,39.9,85,29.75,10.0,NNW,3.5,-,N/A,,Overcast,330,2012-10-22 08:53:00
2:53 AM,44.1,41.0,89,29.74,10.0,Calm,Calm,-,N/A,,Overcast,0,2012-10-22 09:53:00
3:53 AM,44.1,41.0,89,29.70,10.0,Calm,Calm,-,0.00,Rain,Light Rain,0,2012-10-22 10:53:00
4:53 AM,44.1,41.0,89,29.68,10.0,Calm,Calm,-,0.00,,Overcast,0,2012-10-22 11:53:00
5:53 AM,44.1,41.0,89,29.66,10.0,SSE,3.5,-,0.01,Rain,Light Rain,150,2012-10-22 12:53:00
6:53 AM,45.0,42.1,90,29.64,8.0,Calm,Calm,-,0.02,Rain,Light Rain,0,2012-10-22 13:53:00
7:53 AM,45.0,42.1,90,29.62,5.0,WSW,4.6,-,0.05,Rain,Light Rain,250,2012-10-22 14:53:00
8:53 AM,45.0,42.1,90,29.61,10.0,Calm,Calm,-,0.02,Rain,Light Rain,0,2012-10-22 15:53:00
10:42 AM,44.6,41.0,87,29.59,6.0,WSW,5.8,-,0.04,Rain,Light Rain,250,2012-10-22 17:42:00
10:53 AM,45.0,41.0,86,29.60,7.0,WSW,5.8,-,0.04,Rain,Light Rain,250,2012-10-22 17:53:00
11:45 AM,44.6,42.8,93,29.60,5.0,West,3.5,-,0.05,Rain,Light Rain,260,2012-10-22 18:45:00
11:53 AM,46.0,42.1,86,29.60,5.0,Calm,Calm,-,0.06,Rain,Light Rain,0,2012-10-22 18:53:00
12:08 PM,46.4,41.0,81,29.59,7.0,ESE,4.6,-,0.01,Rain,Light Rain,110,2012-10-22 19:08:00
12:53 PM,46.0,39.0,76,29.60,10.0,NE,4.6,-,0.01,,Overcast,50,2012-10-22 19:53:00
1:53 PM,48.0,39.9,74,29.61,10.0,Calm,Calm,-,0.01,Rain,Light Rain,0,2012-10-22 20:53:00
2:53 PM,48.9,39.0,69,29.62,10.0,Calm,Calm,-,N/A,,Mostly Cloudy,0,2012-10-22 21:53:00
3:53 PM,46.9,41.0,80,29.64,10.0,NNW,4.6,-,0.00,,Mostly Cloudy,340,2012-10-22 22:53:00
4:53 PM,50.0,39.9,68,29.63,10.0,Calm,Calm,-,N/A,,Partly Cloudy,0,2012-10-22 23:53:00
5:53 PM,46.0,39.9,79,29.65,10.0,WNW,3.5,-,N/A,,Partly Cloudy,300,2012-10-23 00:53:00
6:53 PM,44.1,39.9,85,29.66,7.0,West,3.5,-,N/A,,Mostly Cloudy,280,2012-10-23 01:53:00
7:53 PM,42.1,39.0,89,29.68,9.0,WNW,3.5,-,N/A,,Overcast,300,2012-10-23 02:53:00
8:53 PM,43.0,39.9,89,29.69,10.0,Calm,Calm,-,N/A,,Overcast,0,2012-10-23 03:53:00
10:53 PM,41.0,37.9,89,29.70,6.0,WSW,3.5,-,N/A,,Partly Cloudy,250,2012-10-23 05:53:00
11:53 PM,39.9,37.0,89,29.72,10.0,Calm,Calm,-,N/A,,Scattered Clouds,0,2012-10-23 06:53:00